Tracking 30970 objects as of 3-Jul-2025
HD Live streaming from Space Station
objects crossing your sky now

BREEZE-M DEB

Track BREEZE-M DEB now!
10-day predictions


NORAD ID: 36594
Int'l Code: 2010-025C
Perigee: 311.4 km
Apogee: 15,413.7 km
Inclination: 49.4 °
Period: 281.7 minutes
Semi major axis: 14233 km
RCS: 5.977 m2 (large)
Launch date: June 3, 2010
Source: Commonwealth of Independent States (former USSR) (CIS)
Launch site: TYURATAM MISSILE AND SPACE COMPLEX (TTMTR)

Note: This is SATELLITE DEBRIS
Your satellite tracking list
Your tracking list is empty




NASA's NSSDC Master Catalog

Two Line Element Set (TLE):
1 36594U 10025C   25183.35686505  .00001695  00000-0  36997-3 0  9990
2 36594  49.3837 234.5091 5305165 132.3390 286.8739  5.11249891271309
Source of the keplerian elements: AFSPC